Wind_Speed
79 78 78 79 78 72 70 75 70 59 57 58 56 54 55 57 52 47 47 45 44 46 48 47 43 39 38 36 32 33 34 31 30 28 28 28 29 27 27 28 28 28 28 28 27 27 27 27 28 28 28 27 27 26 26 26 26 27 27 28 29 28 28
82 82 82 82 80 76 76 77 71 64 65 63 59 58 58 56 51 48 50 49 47 48 49 48 45 42 39 36 35 36 36 35 33 31 31 30 29 29 30 31 30 31 31 30 30 29 29 29 30 30 30 29 29 28 28 28 29 29 30 30 31 30 30
84 85 85 84 82 80 78 77 73 72 71 65 61 61 59 54 51 51 52 51 50 49 50 49 48 45 39 35 39 41 39 38 36 35 34 32 31 32 35 35 33 33 33 32 32 32 32 31 31 32 32 32 31 30 30 30 31 31 32 32 32 32 31
85 88 87 85 83 81 80 78 76 77 74 68 66 64 59 56 55 54 53 53 51 50 52 52 50 47 40 38 44 45 41 40 39 39 38 35 34 35 37 37 36 36 36 35 34 34 34 34 33 34 34 34 33 32 32 32 33 33 33 33 33 33 33
84 87 86 84 83 83 82 81 79 80 78 73 71 66 63 62 60 56 55 54 52 52 55 56 53 49 43 43 48 47 43 43 43 42 41 39 38 38 39 39 38 38 38 37 37 36 36 36 36 36 36 36 35 35 34 34 34 35 35 35 35 34 35
79 82 85 85 86 87 87 85 83 82 81 79 75 70 69 66 60 56 56 54 54 55 57 59 57 52 47 47 50 49 47 47 46 45 44 42 41 41 41 40 40 41 41 40 39 38 39 39 38 38 38 37 37 36 36 36 36 36 36 37 37 36 36
74 78 84 88 90 91 91 89 87 85 85 85 82 76 72 68 61 59 59 56 55 58 59 61 60 53 49 50 51 50 51 49 47 47 46 44 43 42 42 41 40 42 42 41 40 40 40 40 40 39 39 39 38 38 38 38 38 38 38 38 38 38 39
72 76 82 88 92 93 93 92 89 87 88 88 85 78 75 73 67 64 64 58 55 58 61 62 62 56 53 53 52 53 54 50 48 49 47 46 46 44 44 43 42 43 43 42 41 41 41 41 41 41 40 40 40 40 40 40 40 40 40 40 40 40 41
69 72 77 83 89 91 92 92 90 87 89 89 84 81 81 77 70 68 67 61 57 61 63 64 65 61 56 55 55 55 54 51 50 50 49 50 49 46 46 46 45 45 45 43 42 42 42 42 42 42 42 42 42 41 41 41 41 42 41 42 42 43 43
66 68 73 78 84 89 90 92 91 90 91 89 84 85 86 79 72 72 70 63 61 64 64 64 67 65 58 56 58 57 54 52 51 50 51 52 51 48 48 48 46 45 45 45 44 44 44 44 44 44 44 44 44 43 43 43 43 43 43 43 44 45 45
66 68 71 76 82 89 92 94 95 95 94 92 89 90 90 81 77 77 72 66 67 68 66 65 68 66 61 60 62 60 57 54 52 52 54 55 53 50 49 48 47 46 46 47 47 46 46 46 46 46 46 46 46 46 45 45 45 45 46 46 46 46 47
66 68 70 73 80 87 91 93 95 97 98 96 94 94 91 85 83 81 75 72 72 70 68 68 68 67 66 66 65 62 59 56 55 57 59 57 54 52 50 49 47 47 48 49 48 47 48 48 48 48 48 48 48 48 48 48 48 48 48 49 49 49 49
64 68 70 71 76 83 89 90 92 96 99 99 98 96 91 89 89 85 79 78 75 72 71 69 67 68 71 71 68 65 63 60 59 61 61 58 56 53 52 50 49 48 49 50 49 50 50 50 50 50 50 50 50 51 51 51 50 50 51 52 52 51 51
62 67 70 70 72 78 85 89 90 94 99 100 99 96 93 93 93 87 83 83 79 75 75 72 68 70 75 74 72 70 67 65 65 65 62 60 58 55 54 53 51 50 51 51 51 52 52 52 52 52 51 52 52 52 53 53 53 53 54 54 54 53 54
60 65 69 70 70 73 79 86 90 92 96 100 101 98 95 95 94 89 87 87 83 80 79 74 71 73 76 77 75 74 72 69 69 67 62 61 60 58 57 56 53 53 54 54 54 54 54 54 53 53 53 53 54 55 55 56 56 55 56 57 56 56 56
57 61 67 69 70 72 75 82 87 90 92 97 100 100 98 97 95 92 90 89 84 81 80 77 75 75 76 78 79 78 76 73 72 68 63 63 63 61 59 57 54 54 56 56 56 56 56 55 54 55 55 55 56 58 58 58 58 58 59 59 59 58 58
57 58 63 66 70 74 74 75 80 86 89 93 96 98 99 98 96 94 93 89 84 83 84 83 78 75 75 78 81 82 79 76 74 70 66 66 65 63 60 57 56 56 58 58 58 57 56 57 57 57 57 58 59 60 60 61 61 61 61 61 61 61 60
61 60 63 67 71 72 69 69 76 83 88 90 93 96 99 101 100 98 95 91 88 88 88 85 80 76 76 78 82 84 83 79 76 74 70 68 67 64 61 59 58 59 61 61 60 58 57 58 58 58 59 61 62 62 63 63 62 62 62 63 64 64 63
64 62 64 67 67 65 65 69 75 80 84 87 90 94 97 100 103 101 97 95 94 92 90 87 83 78 77 80 84 86 87 82 77 75 73 71 69 65 63 62 59 61 63 63 62 61 61 59 59 60 62 64 64 64 65 65 64 63 64 64 65 66 66
65 64 63 62 60 61 66 69 71 74 79 84 87 90 94 97 100 101 99 98 97 96 93 90 87 81 78 82 86 87 88 85 79 75 74 73 70 67 66 65 62 63 66 65 64 65 64 62 61 62 64 65 65 65 66 67 67 66 66 66 67 67 67
67 65 62 59 58 61 64 67 67 67 71 78 84 88 90 94 96 98 100 99 98 98 95 92 90 84 81 84 87 87 87 86 82 77 76 76 72 68 69 69 67 67 68 68 69 70 67 64 63 64 65 66 66 67 68 69 69 68 68 68 68 69 69
67 65 62 60 60 59 59 59 59 60 65 71 79 84 86 90 93 95 98 100 100 99 97 95 93 89 84 84 86 86 87 87 85 79 76 78 78 75 74 73 71 70 70 71 73 73 70 67 66 65 66 67 68 69 70 71 71 70 70 70 70 71 71
66 64 61 58 57 57 58 56 55 58 62 65 71 78 80 84 88 91 94 98 101 101 100 98 97 93 88 85 85 87 89 90 87 80 77 81 82 79 77 76 74 73 72 72 75 75 73 70 69 67 68 68 70 71 72 73 72 72 72 72 73 73 73
65 63 60 57 56 56 57 57 57 57 58 60 65 69 73 78 84 88 91 94 98 100 101 101 100 95 90 87 87 89 92 92 89 85 85 88 86 82 80 79 76 75 74 74 76 77 75 73 72 70 69 70 72 73 74 74 73 73 73 74 75 75 74
65 62 59 57 57 54 53 55 55 54 57 62 62 60 63 72 80 85 87 90 93 96 98 101 100 96 94 93 92 90 90 92 91 90 91 93 90 85 82 80 77 77 77 77 77 78 78 77 75 73 71 72 74 75 75 75 74 74 75 75 76 76 75
63 61 59 58 56 52 51 54 54 52 54 57 56 54 58 66 75 81 84 87 91 92 95 100 101 99 99 98 94 90 89 93 95 94 95 96 92 87 84 82 80 80 81 79 78 79 80 81 79 75 74 75 76 76 76 76 75 75 76 76 76 76 76
61 61 61 60 56 51 50 54 56 56 54 53 54 57 59 63 71 77 80 83 88 89 92 97 100 102 102 100 97 92 90 94 97 97 97 97 93 89 86 85 84 83 82 81 80 80 82 83 81 78 77 77 77 77 77 77 77 77 77 77 77 77 76
62 62 62 61 56 50 50 53 56 58 58 55 56 59 58 60 67 73 75 79 83 86 89 91 93 96 100 101 99 95 92 93 97 97 96 95 94 91 89 87 86 84 83 83 82 82 83 84 83 81 79 78 78 78 78 78 78 79 78 78 77 76 76
62 63 62 59 53 49 49 51 52 56 59 58 57 58 58 60 64 67 70 75 78 81 86 87 88 92 96 98 100 99 95 94 96 96 95 94 93 92 90 88 86 85 84 84 84 83 84 84 84 82 81 80 79 79 79 79 80 80 79 78 78 76 76
60 60 59 56 51 50 51 49 45 47 53 57 58 57 57 58 61 62 63 67 71 75 81 85 88 93 95 96 99 100 98 96 96 95 95 94 92 92 91 89 87 86 84 84 84 84 84 83 83 83 82 81 81 80 80 80 80 80 79 78 77 76 76
58 58 56 52 51 51 51 49 45 46 50 55 58 59 56 55 56 56 57 62 66 70 75 79 84 89 94 96 97 99 99 99 98 97 95 93 92 91 90 89 88 86 85 84 83 84 83 83 83 83 83 82 81 81 81 81 81 80 79 78 77 77 76
57 57 53 50 51 52 51 51 51 51 52 52 54 54 53 53 54 53 55 60 65 69 71 73 77 83 88 91 94 97 98 99 98 97 95 93 92 90 89 88 87 85 84 84 83 83 83 83 83 83 82 81 80 80 81 81 81 80 79 78 77 77 76
57 54 51 50 51 50 50 51 53 53 52 51 50 48 48 51 54 54 54 57 60 64 66 68 73 79 83 86 90 93 95 96 97 96 94 93 92 90 88 87 86 85 84 84 83 83 83 83 82 82 81 80 80 80 81 81 81 80 80 79 78 76 75
55 54 52 50 49 47 47 48 51 53 51 48 47 48 49 51 54 55 55 56 58 60 62 64 67 72 76 80 84 88 91 93 94 94 93 92 91 90 88 86 85 84 83 83 83 83 83 82 82 81 80 80 80 80 81 82 82 81 81 80 78 77 76
52 51 51 51 51 50 47 44 45 49 49 46 45 46 46 46 49 51 54 55 57 58 61 63 65 67 70 73 77 82 86 89 91 91 91 91 90 89 87 86 85 84 83 83 83 83 82 82 81 81 81 81 80 80 81 82 82 81 81 80 79 78 77
49 45 45 48 49 47 44 41 41 44 44 43 42 41 39 39 41 44 46 49 52 54 56 58 61 64 67 69 70 74 79 83 86 88 88 88 88 87 86 86 84 83 82 82 82 81 81 81 81 81 80 80 80 80 81 81 82 81 81 81 80 78 76
51 46 45 45 45 44 43 43 43 42 41 39 35 31 31 33 35 37 39 41 43 46 48 49 52 56 60 64 67 69 72 76 79 82 84 85 86 86 85 85 83 82 82 81 80 79 79 79 79 79 79 79 79 79 80 80 81 81 81 80 79 78 77
Wind_Direction
230 232 233 234 235 234 236 239 236 233 233 232 231 231 232 235 235 233 236 236 234 236 238 239 238 236 237 238 237 238 240 238 234 232 232 233 234 234 238 244 248 250 252 254 257 259 261 264 268 271 273 276 278 279 281 284 288 291 293 295 298 300 304
228 229 232 233 234 234 234 238 237 235 234 232 230 230 231 232 233 233 235 236 235 237 240 241 241 239 238 240 241 241 241 242 240 237 236 237 239 241 244 246 247 249 251 254 257 259 261 264 267 270 272 275 277 279 282 284 287 290 292 293 296 299 302
227 228 230 232 232 233 234 237 238 237 234 232 231 231 231 232 232 232 234 235 235 237 241 242 242 241 239 240 243 243 241 243 243 242 240 240 240 243 246 248 248 249 251 253 256 258 261 263 266 268 271 274 276 279 281 284 286 288 290 293 295 298 301
227 227 228 231 232 233 234 235 236 238 236 233 232 231 231 231 230 231 233 235 236 237 240 242 242 241 238 236 241 243 243 243 244 244 244 243 241 242 247 249 249 250 252 253 256 258 260 263 265 268 271 274 276 279 281 283 285 287 289 292 294 297 300
225 227 227 230 232 232 234 234 235 238 238 235 234 233 231 230 228 228 230 234 236 236 239 241 241 240 237 235 239 243 243 243 243 244 246 246 244 244 247 250 250 251 252 254 256 259 262 264 267 269 271 274 276 278 280 281 283 285 288 290 293 296 298
224 227 227 228 230 231 231 232 232 235 237 237 235 232 233 232 230 230 230 230 233 235 237 240 241 240 238 237 239 242 242 242 243 245 246 247 246 246 247 249 252 253 254 255 257 259 262 265 267 269 271 273 275 277 279 280 283 285 287 289 292 294 295
224 225 227 226 228 230 230 230 230 231 234 236 234 231 233 234 232 231 231 229 231 234 237 240 242 239 238 239 240 242 243 243 243 244 246 248 248 248 248 250 253 255 255 256 258 260 262 265 266 268 270 272 274 276 278 281 283 285 287 288 291 292 294
227 224 227 226 227 229 230 230 230 231 233 235 234 233 233 233 231 231 232 229 229 233 236 239 242 239 237 238 239 240 243 244 245 245 246 247 248 248 249 250 250 253 256 258 259 261 263 265 266 268 270 272 274 276 279 281 283 285 286 288 290 291 293
234 226 226 228 228 229 230 231 231 232 234 235 235 236 234 231 230 231 232 230 228 230 233 237 240 239 237 239 241 241 243 243 244 245 246 246 247 247 248 249 249 252 255 259 260 262 264 266 268 269 271 272 275 276 278 280 282 284 285 287 289 291 292
242 233 228 228 228 229 230 231 230 231 233 235 234 236 236 232 231 233 233 232 230 230 231 234 239 240 238 238 240 242 243 244 245 247 247 247 248 248 248 250 251 253 256 259 261 264 266 267 269 270 272 273 275 277 278 280 282 283 285 286 287 288 290
245 239 232 227 227 228 228 228 229 228 230 232 232 234 235 232 232 234 232 232 232 231 231 233 237 241 240 238 240 241 242 244 245 246 247 248 250 250 250 252 253 255 257 259 261 264 266 268 269 271 272 274 276 277 278 280 281 283 284 285 286 287 289
245 243 238 230 227 228 228 227 228 228 229 229 230 231 232 232 232 232 231 231 232 232 232 232 235 239 240 239 240 241 242 243 244 244 246 248 251 251 252 253 254 255 257 259 261 263 265 267 269 270 272 274 275 277 278 280 281 282 283 284 285 287 289
245 245 242 236 230 229 228 227 228 229 229 229 230 230 230 231 232 231 230 231 232 232 233 232 233 236 239 240 240 240 241 241 241 243 244 247 249 251 252 254 254 256 257 259 261 263 264 266 267 269 271 273 275 277 278 279 280 282 283 283 285 286 287
243 244 244 241 235 231 229 227 227 229 229 229 229 230 230 231 231 230 230 231 231 231 232 231 230 232 236 240 240 239 240 239 239 241 242 245 248 249 251 252 253 255 257 259 260 262 264 265 267 269 271 272 274 276 277 278 280 281 282 283 284 285 286
242 242 243 243 240 235 232 229 227 228 229 229 229 228 229 231 231 230 231 232 231 231 233 232 231 231 234 238 240 240 240 239 239 240 241 244 247 248 249 251 253 254 256 258 260 261 263 264 266 268 270 272 274 275 276 277 279 280 281 281 283 284 286
244 242 243 243 242 239 234 231 228 228 229 230 229 228 228 230 231 231 231 232 232 233 235 234 232 231 233 236 240 243 242 241 242 242 241 243 245 246 248 250 252 255 256 258 259 260 262 264 266 268 270 272 273 274 275 277 278 279 280 281 282 284 286
244 242 241 240 241 240 236 232 231 229 228 229 230 229 228 229 230 230 230 231 232 234 235 235 233 232 233 235 239 243 245 245 246 245 244 243 245 246 248 250 252 254 256 257 259 260 262 263 265 267 269 270 272 273 274 276 277 278 280 282 283 284 285
243 240 239 238 239 242 240 236 233 231 228 228 228 229 229 228 228 229 229 229 230 231 233 235 234 234 234 235 237 241 243 245 247 248 247 246 247 248 249 250 252 253 255 257 258 259 260 262 263 266 268 269 270 272 273 274 275 277 279 281 282 283 284
244 241 239 238 239 242 242 239 235 232 230 228 228 229 229 229 228 227 228 228 229 229 231 233 233 232 233 235 237 239 241 242 243 248 250 251 251 251 251 251 252 254 255 256 257 257 259 261 263 264 266 268 269 271 272 273 275 276 278 279 280 281 282
245 242 240 239 239 241 242 241 237 234 232 230 229 229 229 230 229 228 228 228 229 229 229 231 232 230 230 234 237 239 241 242 243 244 248 250 251 252 253 252 251 252 254 256 257 257 258 260 261 263 265 267 269 270 272 273 275 275 276 277 279 280 281
244 243 240 238 237 238 242 243 241 238 235 232 230 230 230 230 230 230 229 229 230 231 230 230 231 229 228 231 235 238 241 243 244 243 245 247 248 248 249 249 248 249 251 253 256 257 258 258 259 261 263 266 268 270 271 272 273 274 275 277 278 279 280
242 242 241 239 236 236 241 244 243 240 237 235 232 230 230 230 231 230 230 229 229 230 231 230 231 230 227 228 233 237 240 242 243 245 247 247 244 243 245 247 248 248 249 251 254 256 257 258 258 260 262 264 266 268 269 271 272 273 275 276 278 279 280
241 241 241 239 236 235 237 240 241 240 238 236 234 231 230 230 231 231 231 230 229 229 230 230 231 230 229 228 230 234 238 240 241 241 244 245 244 242 244 246 247 248 249 250 253 255 256 257 258 259 260 262 264 266 267 269 271 273 275 276 277 279 281
241 241 240 238 236 235 235 238 242 243 241 238 236 233 231 231 231 230 231 231 230 229 229 230 231 230 229 229 229 231 234 238 239 239 242 244 244 243 244 244 245 247 248 249 251 254 255 256 256 257 258 260 262 264 266 267 269 272 274 275 277 278 280
241 241 240 239 237 235 236 239 240 240 239 238 236 233 232 232 230 229 230 231 231 230 229 230 231 231 230 230 229 230 233 236 238 239 241 244 244 243 244 245 246 246 247 248 250 252 254 255 255 256 257 259 260 262 264 266 268 270 272 274 276 278 280
241 240 238 239 237 234 235 238 237 235 235 236 236 236 234 233 231 230 229 230 230 230 229 229 230 230 230 230 230 230 233 235 237 237 239 242 243 244 245 246 246 246 247 248 249 251 253 255 256 256 257 258 260 262 264 266 268 269 271 273 275 277 279
238 238 237 239 238 234 234 237 237 236 236 235 235 236 235 233 232 231 230 229 230 230 230 229 229 229 230 231 230 230 232 235 236 237 239 241 243 244 244 245 246 247 248 250 250 251 253 255 257 258 258 259 261 263 265 266 268 269 271 273 275 277 280
235 235 237 239 238 235 235 238 239 238 236 235 235 235 234 233 234 233 232 230 230 232 232 230 229 230 231 231 231 230 232 234 236 237 239 241 243 244 244 246 247 248 250 251 252 253 254 256 258 260 261 262 263 264 266 267 269 270 272 274 276 279 281
234 235 237 239 239 236 235 238 243 242 238 237 238 238 235 234 234 233 233 232 232 233 233 232 230 230 230 230 230 230 231 234 236 238 240 241 243 244 245 246 247 248 250 252 253 255 256 258 260 262 263 264 265 266 267 268 270 271 273 275 277 279 280
235 237 239 240 239 236 232 233 240 244 240 238 239 238 236 235 235 234 233 233 233 234 235 234 233 232 232 231 231 231 232 234 236 238 239 241 242 244 246 247 248 249 250 252 254 256 257 259 261 263 264 265 266 267 269 270 271 272 274 275 277 278 279
231 233 237 238 237 236 232 229 234 242 241 238 239 239 237 236 236 234 233 232 231 233 235 236 236 235 234 233 232 231 232 234 236 237 239 241 242 244 245 247 248 249 251 252 254 256 258 259 261 262 264 265 267 268 269 270 271 272 273 275 276 278 279
228 229 232 236 238 238 236 234 236 241 241 238 240 241 241 240 239 237 235 232 229 230 233 235 236 236 235 234 233 232 232 234 235 237 239 240 242 244 245 247 249 250 251 252 254 255 257 258 260 262 263 265 267 268 269 270 271 272 273 274 275 277 278
227 227 229 233 237 239 241 240 239 241 241 239 239 239 239 238 237 236 236 234 231 231 233 234 235 236 236 234 234 233 233 234 236 237 239 241 242 244 245 247 248 250 251 252 254 255 256 258 260 261 263 265 266 268 269 270 271 272 273 274 275 276 277
225 225 227 231 234 238 243 243 240 239 241 240 239 238 237 236 235 234 235 234 232 233 234 234 235 235 235 235 235 234 234 235 236 237 239 240 242 243 245 247 248 250 251 252 254 255 257 258 260 262 264 265 266 268 270 271 272 273 275 275 275 275 276
224 227 231 235 236 238 240 240 238 238 240 240 238 238 237 237 238 237 236 235 234 235 237 237 237 236 236 236 236 236 235 235 236 237 239 240 242 243 245 247 248 250 251 253 254 256 258 259 261 263 264 266 267 269 270 271 272 274 274 275 275 276 276
217 222 229 234 236 236 236 236 235 236 238 237 236 236 236 237 238 239 238 238 237 236 237 238 238 237 236 236 236 236 237 237 237 238 239 241 242 243 245 246 248 250 251 253 255 257 259 261 262 264 265 267 268 269 270 271 272 273 274 274 275 276 276
212 216 222 229 235 238 239 237 235 236 236 233 231 233 238 241 242 242 242 242 241 239 239 240 239 238 237 237 237 237 237 237 238 239 240 241 243 244 245 247 249 250 252 254 256 258 260 261 263 264 265 267 268 269 270 271 272 273 274 275 275 275 275
Height
10871 10874 10874 10874 10877 10887 10890 10883 10893 10910 10913 10911 10914 10918 10920 10920 10925 10932 10933 10936 10938 10936 10936 10938 10942 10947 10948 10951 10954 10954 10955 10958 10960 10961 10962 10963 10964 10965 10965 10966 10967 10968 10968 10969 10969 10969 10969 10968 10968 10967 10967 10967 10967 10966 10966 10965 10965 10965 10964 10963 10962 10962 10961
10860 10862 10862 10864 10871 10879 10880 10878 10891 10901 10899 10901 10908 10911 10912 10915 10923 10928 10928 10930 10933 10932 10932 10934 10938 10942 10945 10947 10949 10950 10952 10954 10956 10957 10959 10960 10961 10962 10962 10962 10964 10964 10965 10965 10966 10966 10965 10965 10965 10964 10964 10964 10964 10964 10963 10962 10962 10961 10961 10960 10959 10958 10958
10848 10851 10852 10855 10863 10870 10874 10879 10885 10886 10888 10897 10903 10904 10908 10914 10920 10921 10922 10924 10927 10929 10929 10930 10933 10937 10941 10944 10943 10944 10947 10949 10951 10952 10954 10956 10958 10959 10959 10959 10960 10960 10961 10962 10962 10962 10962 10961 10961 10961 10960 10961 10961 10960 10960 10959 10959 10958 10958 10957 10956 10955 10955
10837 10840 10844 10851 10859 10866 10870 10874 10876 10875 10881 10892 10895 10898 10904 10909 10912 10914 10916 10919 10922 10926 10924 10923 10927 10932 10937 10939 10937 10938 10942 10944 10946 10947 10949 10952 10954 10955 10955 10955 10956 10956 10956 10957 10958 10958 10958 10958 10958 10957 10957 10957 10957 10957 10956 10956 10955 10955 10954 10953 10953 10952 10951
10828 10833 10843 10851 10855 10858 10861 10865 10869 10869 10874 10882 10886 10892 10898 10900 10904 10908 10911 10914 10919 10921 10918 10917 10922 10927 10932 10934 10932 10933 10937 10938 10940 10942 10944 10947 10949 10951 10952 10952 10952 10952 10952 10953 10954 10954 10954 10954 10954 10954 10953 10953 10953 10953 10953 10953 10952 10951 10951 10950 10949 10949 10948
10826 10830 10837 10843 10841 10842 10848 10853 10859 10862 10864 10869 10875 10884 10890 10893 10900 10904 10906 10910 10913 10913 10912 10912 10915 10921 10926 10928 10927 10929 10931 10933 10935 10937 10939 10942 10944 10946 10947 10949 10949 10949 10949 10949 10950 10950 10950 10950 10950 10950 10950 10950 10949 10949 10949 10949 10948 10948 10947 10946 10946 10945 10944
10820 10822 10824 10828 10827 10830 10836 10840 10847 10852 10853 10854 10861 10874 10883 10888 10896 10899 10899 10905 10908 10907 10907 10905 10907 10916 10921 10921 10922 10924 10925 10927 10931 10932 10934 10936 10938 10940 10942 10945 10946 10945 10944 10945 10946 10946 10946 10946 10946 10946 10946 10946 10946 10946 10945 10944 10944 10943 10943 10942 10942 10941 10939
10808 10812 10813 10817 10818 10821 10826 10831 10840 10845 10845 10847 10855 10869 10875 10878 10887 10892 10892 10900 10904 10901 10901 10900 10901 10909 10914 10914 10917 10919 10919 10923 10926 10927 10929 10931 10932 10935 10937 10939 10940 10940 10939 10941 10941 10942 10942 10942 10943 10943 10943 10943 10943 10942 10941 10940 10940 10939 10938 10938 10937 10936 10935
10796 10804 10808 10810 10813 10816 10820 10827 10837 10841 10841 10845 10854 10860 10861 10868 10880 10883 10885 10894 10898 10894 10894 10894 10894 10900 10907 10909 10910 10912 10914 10918 10920 10921 10923 10924 10926 10930 10931 10932 10934 10935 10935 10936 10936 10937 10938 10938 10938 10938 10939 10939 10938 10938 10937 10936 10936 10935 10934 10934 10933 10932 10930
10788 10795 10800 10802 10804 10807 10811 10817 10825 10831 10833 10839 10848 10848 10848 10863 10876 10875 10880 10891 10891 10885 10887 10889 10887 10891 10900 10904 10904 10905 10908 10911 10913 10916 10918 10918 10920 10924 10926 10927 10929 10930 10931 10931 10932 10932 10933 10933 10934 10933 10934 10934 10934 10933 10933 10932 10932 10931 10930 10930 10929 10927 10926
10777 10781 10786 10789 10791 10792 10796 10802 10809 10816 10820 10827 10834 10833 10838 10857 10865 10864 10875 10884 10879 10877 10882 10883 10882 10885 10891 10895 10896 10899 10902 10905 10908 10911 10911 10911 10914 10918 10921 10923 10925 10926 10927 10926 10927 10927 10928 10928 10929 10928 10928 10929 10928 10928 10928 10927 10927 10926 10925 10924 10923 10922 10921
10767 10769 10773 10778 10781 10781 10786 10794 10799 10804 10808 10814 10818 10821 10833 10848 10848 10852 10868 10871 10867 10873 10877 10876 10878 10879 10881 10884 10888 10892 10896 10899 10903 10903 10903 10905 10909 10912 10914 10917 10920 10921 10921 10921 10922 10922 10923 10923 10923 10923 10923 10924 10923 10922 10922 10922 10921 10921 10920 10918 10917 10917 10916
10758 10759 10762 10768 10771 10772 10777 10785 10791 10794 10798 10803 10808 10815 10829 10835 10833 10845 10860 10857 10858 10868 10869 10869 10874 10873 10870 10873 10878 10883 10887 10891 10894 10895 10897 10900 10903 10906 10908 10910 10913 10915 10915 10916 10916 10917 10918 10918 10918 10918 10918 10918 10918 10917 10917 10916 10916 10915 10914 10912 10912 10911 10911
10750 10749 10752 10758 10762 10765 10769 10776 10782 10784 10786 10793 10801 10811 10822 10823 10823 10838 10847 10844 10850 10860 10860 10863 10868 10865 10860 10862 10867 10873 10877 10882 10884 10886 10891 10894 10896 10900 10902 10903 10906 10908 10908 10910 10911 10911 10912 10912 10912 10912 10913 10913 10912 10912 10911 10910 10909 10909 10907 10906 10906 10906 10905
10741 10742 10744 10748 10752 10757 10760 10765 10771 10774 10777 10784 10792 10802 10812 10812 10817 10831 10835 10834 10844 10851 10852 10858 10861 10856 10853 10854 10858 10862 10867 10872 10875 10879 10885 10888 10889 10893 10894 10896 10900 10901 10902 10904 10905 10906 10906 10906 10907 10907 10907 10907 10906 10906 10905 10903 10903 10903 10901 10899 10899 10900 10899
10735 10737 10735 10739 10743 10745 10747 10753 10761 10766 10771 10776 10783 10793 10801 10804 10811 10822 10824 10828 10840 10847 10847 10850 10852 10851 10849 10849 10850 10853 10858 10863 10867 10873 10880 10882 10882 10885 10887 10891 10895 10895 10896 10898 10898 10899 10900 10900 10902 10901 10901 10901 10900 10899 10898 10897 10896 10895 10893 10892 10893 10894 10894
10727 10728 10727 10730 10730 10728 10736 10749 10755 10758 10762 10767 10774 10783 10791 10796 10802 10809 10814 10825 10837 10838 10834 10837 10845 10849 10848 10846 10843 10844 10850 10855 10858 10864 10872 10874 10875 10879 10882 10886 10889 10889 10889 10891 10891 10893 10894 10895 10896 10895 10895 10895 10893 10892 10891 10890 10889 10888 10887 10886 10886 10887 10887
10716 10718 10718 10717 10716 10721 10736 10745 10744 10745 10750 10756 10763 10771 10777 10783 10789 10795 10806 10816 10820 10818 10820 10830 10841 10846 10845 10841 10837 10835 10840 10848 10852 10856 10862 10865 10868 10873 10877 10879 10880 10880 10881 10883 10885 10886 10887 10888 10889 10889 10888 10887 10886 10885 10884 10883 10883 10882 10882 10881 10879 10879 10880
10705 10709 10707 10706 10712 10723 10731 10731 10731 10736 10742 10748 10755 10760 10765 10770 10776 10784 10795 10801 10802 10805 10813 10822 10830 10837 10839 10835 10830 10827 10828 10837 10847 10852 10855 10858 10862 10867 10870 10871 10872 10873 10873 10874 10877 10878 10879 10881 10883 10883 10881 10879 10878 10878 10876 10875 10876 10876 10876 10875 10873 10872 10872
10695 10698 10699 10704 10713 10718 10717 10717 10723 10729 10735 10741 10746 10750 10756 10761 10768 10777 10786 10791 10792 10796 10803 10810 10817 10828 10833 10828 10823 10823 10822 10828 10841 10849 10850 10852 10856 10860 10862 10864 10865 10865 10865 10866 10868 10869 10871 10874 10876 10875 10873 10872 10871 10871 10869 10868 10868 10869 10869 10869 10868 10866 10865
10686 10689 10694 10701 10706 10707 10707 10710 10718 10724 10730 10734 10737 10742 10749 10754 10760 10768 10775 10781 10784 10788 10797 10803 10807 10816 10823 10820 10818 10820 10821 10822 10831 10840 10843 10845 10850 10854 10854 10855 10857 10858 10859 10860 10859 10859 10862 10866 10868 10868 10866 10865 10864 10864 10863 10861 10860 10861 10862 10862 10861 10859 10858
10677 10681 10686 10692 10698 10701 10703 10706 10712 10718 10721 10723 10726 10733 10741 10746 10751 10757 10762 10768 10774 10780 10788 10794 10796 10804 10812 10814 10815 10819 10819 10817 10822 10831 10836 10835 10839 10843 10844 10845 10849 10851 10852 10853 10850 10850 10854 10857 10860 10861 10860 10859 10858 10857 10855 10854 10853 10854 10856 10855 10853 10852 10851
10670 10674 10680 10686 10692 10696 10698 10700 10703 10707 10711 10714 10718 10725 10733 10738 10741 10746 10750 10755 10761 10769 10776 10781 10785 10793 10802 10808 10813 10814 10809 10808 10814 10823 10826 10822 10825 10833 10835 10838 10842 10843 10845 10846 10843 10842 10845 10848 10851 10854 10853 10852 10851 10849 10848 10847 10848 10849 10849 10848 10846 10845 10844
10664 10668 10674 10680 10684 10687 10690 10694 10697 10700 10704 10707 10709 10716 10725 10728 10729 10733 10740 10746 10751 10759 10766 10769 10775 10786 10796 10800 10802 10801 10799 10800 10807 10813 10813 10810 10815 10823 10826 10829 10834 10836 10837 10838 10835 10833 10837 10840 10842 10845 10847 10846 10845 10842 10841 10842 10844 10844 10843 10841 10839 10838 10838
10656 10661 10667 10671 10675 10680 10685 10688 10690 10693 10695 10695 10700 10710 10716 10716 10717 10723 10730 10735 10740 10748 10756 10760 10768 10780 10786 10785 10788 10793 10796 10796 10798 10801 10800 10798 10803 10812 10817 10822 10827 10828 10828 10829 10829 10827 10829 10830 10832 10837 10841 10840 10837 10836 10836 10837 10838 10838 10837 10834 10833 10832 10832
10650 10655 10659 10662 10667 10675 10679 10680 10682 10685 10686 10690 10697 10703 10704 10704 10707 10712 10718 10723 10728 10736 10744 10749 10757 10766 10770 10771 10779 10788 10790 10786 10786 10789 10789 10788 10794 10804 10811 10815 10818 10818 10818 10821 10823 10822 10820 10819 10823 10829 10833 10832 10830 10830 10831 10832 10832 10831 10830 10828 10827 10826 10826
10643 10646 10650 10654 10660 10669 10673 10672 10673 10675 10679 10685 10689 10690 10693 10697 10698 10702 10710 10715 10720 10727 10732 10738 10746 10753 10757 10762 10771 10779 10780 10777 10775 10777 10780 10782 10788 10797 10802 10804 10807 10810 10812 10814 10816 10816 10814 10812 10815 10820 10823 10824 10824 10824 10824 10825 10824 10823 10822 10822 10821 10821 10821
10635 10639 10643 10647 10654 10662 10665 10664 10665 10667 10671 10676 10678 10680 10688 10693 10691 10694 10702 10707 10713 10720 10724 10731 10739 10743 10747 10754 10761 10766 10768 10767 10765 10768 10773 10777 10781 10786 10791 10795 10799 10803 10805 10805 10807 10809 10808 10806 10807 10811 10815 10817 10817 10817 10817 10818 10817 10816 10815 10815 10815 10816 10815
10628 10632 10636 10641 10649 10656 10658 10657 10659 10662 10664 10668 10671 10675 10682 10684 10683 10687 10694 10700 10708 10715 10718 10724 10730 10733 10737 10744 10749 10754 10758 10759 10759 10761 10765 10770 10773 10777 10782 10787 10792 10795 10796 10798 10799 10801 10800 10801 10802 10804 10807 10809 10810 10810 10810 10810 10809 10809 10809 10809 10809 10809 10808
10625 10628 10632 10639 10645 10648 10650 10653 10655 10657 10659 10662 10664 10668 10674 10676 10677 10683 10689 10695 10702 10708 10711 10715 10720 10724 10729 10734 10739 10746 10751 10752 10752 10753 10756 10761 10766 10769 10774 10778 10782 10785 10788 10790 10791 10792 10793 10795 10796 10796 10798 10800 10801 10802 10802 10802 10802 10802 10802 10802 10802 10801 10800
10621 10623 10628 10635 10638 10640 10643 10648 10650 10651 10653 10654 10655 10659 10666 10670 10673 10679 10684 10689 10695 10700 10702 10706 10711 10715 10719 10725 10731 10737 10741 10742 10743 10745 10748 10753 10758 10761 10765 10769 10773 10777 10780 10782 10783 10784 10786 10787 10787 10788 10790 10791 10793 10794 10793 10793 10793 10793 10793 10794 10794 10792 10791
10614 10619 10625 10629 10630 10632 10637 10641 10643 10644 10646 10648 10651 10657 10663 10667 10671 10674 10677 10680 10685 10689 10693 10698 10703 10705 10709 10716 10722 10727 10730 10733 10735 10738 10742 10746 10749 10754 10757 10761 10765 10769 10772 10774 10775 10776 10777 10777 10778 10779 10781 10783 10784 10785 10784 10784 10783 10783 10784 10786 10786 10784 10783
10610 10616 10620 10621 10621 10626 10631 10634 10635 10638 10640 10644 10649 10654 10658 10661 10664 10666 10669 10671 10674 10677 10682 10688 10692 10695 10700 10707 10712 10717 10722 10725 10728 10732 10736 10738 10742 10746 10750 10753 10757 10760 10762 10764 10766 10766 10767 10769 10770 10771 10774 10775 10775 10775 10775 10774 10774 10774 10774 10776 10777 10777 10775
10606 10611 10613 10615 10618 10623 10625 10627 10630 10633 10636 10640 10644 10647 10650 10653 10655 10658 10662 10664 10667 10669 10673 10677 10682 10686 10692 10698 10703 10708 10712 10716 10720 10724 10728 10730 10734 10738 10742 10745 10748 10751 10753 10756 10757 10758 10759 10761 10763 10764 10765 10766 10767 10767 10766 10764 10764 10764 10764 10765 10766 10766 10766
10603 10608 10610 10611 10614 10617 10619 10622 10625 10627 10631 10635 10638 10641 10644 10646 10649 10652 10655 10659 10662 10664 10667 10670 10675 10680 10685 10690 10696 10701 10705 10709 10713 10717 10720 10723 10727 10731 10734 10738 10740 10743 10745 10747 10749 10750 10753 10754 10756 10757 10757 10758 10759 10759 10757 10755 10754 10754 10754 10754 10754 10756 10756
10600 10605 10606 10605 10607 10612 10616 10619 10621 10623 10626 10630 10633 10636 10639 10641 10643 10645 10648 10652 10656 10659 10663 10666 10670 10674 10679 10684 10689 10693 10698 10702 10706 10710 10713 10717 10720 10723 10727 10729 10732 10735 10738 10740 10741 10744 10746 10747 10748 10748 10749 10749 10749 10749 10747 10746 10745 10744 10744 10743 10745 10746 10746
10595 10598 10599 10600 10604 10609 10612 10614 10616 10619 10622 10626 10629 10633 10635 10637 10639 10642 10645 10648 10652 10655 10659 10663 10666 10670 10674 10677 10681 10685 10690 10694 10698 10702 10706 10710 10713 10716 10719 10722 10726 10729 10731 10733 10735 10737 10738 10739 10739 10739 10739 10739 10739 10738 10737 10736 10735 10734 10734 10734 10735 10736 10737